{"data":{"norad_id":60057,"epoch":"2026-09-21T15:41:58.264512Z","epoch_age_seconds":77824,"freshness":"FRESH","line1":"1 60057U 24112V   26264.65414658 -.00000045  00000+0  98137-5 0  9999","line2":"2 60057  53.1572 246.0625 0001364  87.3938 272.7221 15.34391186128623","mean_motion":15.34391186,"eccentricity":0.0001364,"inclination_deg":53.1572,"raan_deg":246.0625,"arg_perigee_deg":87.3938,"mean_anomaly_deg":272.7221,"bstar":9.8137e-6,"rev_number":12862,"period_min":93.84829717081,"perigee_km":461.79634321591,"apogee_km":463.66253158004,"semimajor_km":6840.866437398,"source":"CELESTRAK","updated_at":"2026-09-22T09:00:49.145714Z"}}